Location: ??????
(55.4348°N, 39.2112°E)
Time: 08:31:17
(UTC+00:00)

USA 229 DEB - Pass Details

Date: 14 April 2024
Orbit: 892 x 1319 km, 63.4° (Epoch: 18 May)

Event Time Altitude Azimuth Distance (km) Brightness Sun altitude
Rises 01:34:42 0° 303° (WNW) 3,838 6.3 -6.8°
Reaches altitude 10° 01:37:16 10° 306° (NW) 2,942 5.8 -6.5°
Maximum altitude 01:44:18 65° 29° (NNE) 1,284 4.4 -5.6°
Drops below altitude 10° 01:52:03 10° 111° (ESE) 3,234 7.0 -4.6°
Sets 01:55:00 0° 114° (ESE) 4,242 7.5 -4.2°
